SWR2PE LSZH-LFMN

Flight info

Callsign SWR2PE
Flight time N/A
Altitude 38000
Route VEBIT4W/28 VEBIT T53 GERSA DCT SOSON DCT ODINA DCT ENOBA/N0447F390 Z185 ASBOP/N0385F190 Z185 BORDI
Aircraft A20N/M-SDE2E3FGHIRWXY/LB1

Departure

Time 2026-04-26 13:59
Airport Zürich Airport (LSZH)

Arrival

Time N/A
Airport Nice-Côte d'Azur Airport (LFMN)
Time Latitude Longitude Altitude Speed Heading
2026-04-26 13:41 47.45410 8.55946 1410 ft 0 kts 186°
2026-04-26 13:52 47.45432 8.55948 1410 ft 4 kts 181°
2026-04-26 13:52 47.45459 8.55948 1410 ft 4 kts 172°
2026-04-26 13:53 47.45484 8.55938 1414 ft 4 kts 146°
2026-04-26 13:53 47.45497 8.55916 1412 ft 1 kts 96°
2026-04-26 13:53 47.45497 8.55909 1412 ft 0 kts 96°
2026-04-26 13:56 47.45497 8.55910 1410 ft 1 kts 96°
2026-04-26 13:56 47.45490 8.56011 1412 ft 12 kts 96°
2026-04-26 13:56 47.45481 8.56143 1420 ft 14 kts 97°
2026-04-26 13:57 47.45513 8.56279 1415 ft 15 kts 51°
2026-04-26 13:57 47.45575 8.56389 1418 ft 14 kts 52°
2026-04-26 13:57 47.45585 8.56599 1420 ft 26 kts 96°
2026-04-26 13:57 47.45566 8.56861 1423 ft 26 kts 96°
2026-04-26 13:58 47.45613 8.57042 1428 ft 13 kts 348°
2026-04-26 13:58 47.45669 8.56958 1427 ft 11 kts 258°
2026-04-26 13:58 47.45676 8.56813 1424 ft 36 kts 274°
2026-04-26 13:58 47.45733 8.56006 1420 ft 118 kts 276°
2026-04-26 13:59 47.45845 8.54453 1450 ft 176 kts 277°
2026-04-26 13:59 47.45982 8.52713 2315 ft 164 kts 278°
2026-04-26 13:59 47.46101 8.51036 3333 ft 172 kts 279°
2026-04-26 14:00 47.44516 8.45335 4949 ft 260 kts 210°
2026-04-26 14:00 47.43004 8.43621 5576 ft 287 kts 229°
2026-04-26 14:00 47.42190 8.42025 6354 ft 288 kts 233°
2026-04-26 14:01 47.40740 8.38851 8386 ft 276 kts 237°
2026-04-26 14:01 47.39648 8.36522 9750 ft 278 kts 229°
2026-04-26 14:01 47.38177 8.34633 10761 ft 289 kts 212°
2026-04-26 14:01 47.36201 8.33583 11254 ft 320 kts 187°
2026-04-26 14:02 47.33911 8.34028 11767 ft 348 kts 160°
2026-04-26 14:02 47.31757 8.35825 12637 ft 362 kts 147°
2026-04-26 14:02 47.29752 8.38148 13629 ft 370 kts 140°
2026-04-26 14:02 47.27851 8.40682 14569 ft 377 kts 138°
2026-04-26 14:03 47.25896 8.43366 15455 ft 385 kts 141°
2026-04-26 14:03 47.23724 8.45643 16366 ft 390 kts 148°
2026-04-26 14:03 47.21388 8.47726 17270 ft 396 kts 152°
2026-04-26 14:03 47.18929 8.49678 18161 ft 402 kts 156°
2026-04-26 14:04 47.16303 8.51086 18952 ft 405 kts 168°
2026-04-26 14:04 47.13532 8.51877 19747 ft 408 kts 173°
2026-04-26 14:04 47.10703 8.52427 20579 ft 411 kts 176°
2026-04-26 14:04 47.07839 8.52846 21392 ft 414 kts 177°
2026-04-26 14:05 47.04950 8.53212 22164 ft 419 kts 178°
2026-04-26 14:05 47.02038 8.53572 22889 ft 424 kts 177°
2026-04-26 14:05 46.99081 8.53948 23646 ft 428 kts 177°
2026-04-26 14:05 46.96097 8.54348 24273 ft 432 kts 177°
2026-04-26 14:06 46.93090 8.54766 24904 ft 435 kts 177°
2026-04-26 14:06 46.90068 8.55197 25497 ft 438 kts 177°
2026-04-26 14:06 46.87027 8.55632 26107 ft 440 kts 177°
2026-04-26 14:06 46.84007 8.56062 26644 ft 444 kts 177°
2026-04-26 14:07 46.80924 8.56506 27170 ft 447 kts 177°
2026-04-26 14:07 46.77815 8.56955 27718 ft 450 kts 177°
2026-04-26 14:07 46.74692 8.57405 28257 ft 453 kts 177°
2026-04-26 14:07 46.71536 8.57859 28781 ft 457 kts 177°
2026-04-26 14:08 46.68371 8.58313 29293 ft 459 kts 177°
2026-04-26 14:08 46.65169 8.58771 29835 ft 461 kts 177°
2026-04-26 14:08 46.61962 8.59226 30104 ft 466 kts 177°
2026-04-26 14:09 46.55558 8.60139 30129 ft 465 kts 177°
2026-04-26 14:09 46.49964 8.60943 30137 ft 443 kts 177°
2026-04-26 14:09 46.46961 8.61376 30115 ft 424 kts 177°
2026-04-26 14:10 46.44090 8.61787 30126 ft 406 kts 177°
2026-04-26 14:10 46.41335 8.62180 30129 ft 389 kts 178°
2026-04-26 14:10 46.38696 8.62554 30102 ft 374 kts 178°
2026-04-26 14:10 46.36154 8.62912 30101 ft 359 kts 178°
2026-04-26 14:11 46.31382 8.63583 30092 ft 331 kts 178°
2026-04-26 14:11 46.29137 8.63899 30091 ft 317 kts 178°
2026-04-26 14:11 46.26994 8.64201 30084 ft 301 kts 179°
2026-04-26 14:12 46.24952 8.64487 30073 ft 286 kts 178°
2026-04-26 14:12 46.23020 8.64759 30076 ft 271 kts 179°
2026-04-26 14:12 46.21191 8.65019 30066 ft 256 kts 179°
2026-04-26 14:12 46.19494 8.65260 30055 ft 239 kts 179°
2026-04-26 14:13 46.16208 8.65716 30261 ft 237 kts 180°
2026-04-26 14:13 46.14552 8.65946 30271 ft 253 kts 180°
2026-04-26 14:13 46.12630 8.66179 29463 ft 300 kts 179°